Year,Month,Day,Hour,Minute,Value (Times are PST for temperature in C)
2010,08,13,00,00,17.60
2010,08,13,00,01,17.60
2010,08,13,00,02,17.60
2010,08,13,00,03,17.60
2010,08,13,00,04,17.60
2010,08,13,00,05,17.60
2010,08,13,00,06,17.60
2010,08,13,00,07,17.60
2010,08,13,00,08,17.60
2010,08,13,00,09,17.60
2010,08,13,00,10,17.70
2010,08,13,00,11,17.70
2010,08,13,00,12,17.70
2010,08,13,00,13,17.80
2010,08,13,00,14,17.80
2010,08,13,00,15,17.80
2010,08,13,00,16,17.80
2010,08,13,00,17,17.90
2010,08,13,00,18,17.90
2010,08,13,00,19,17.90
2010,08,13,00,20,17.90
2010,08,13,00,21,17.90
2010,08,13,00,22,17.90
2010,08,13,00,23,17.90
2010,08,13,00,24,17.90
2010,08,13,00,25,17.90
2010,08,13,00,26,17.90
2010,08,13,00,27,17.90
2010,08,13,00,28,17.90
2010,08,13,00,29,17.90
2010,08,13,00,30,17.90
2010,08,13,00,31,17.90
2010,08,13,00,32,17.90
2010,08,13,00,33,17.90
2010,08,13,00,34,17.90
2010,08,13,00,35,17.90
2010,08,13,00,36,17.90
2010,08,13,00,37,17.90
2010,08,13,00,38,17.90
2010,08,13,00,39,17.90
2010,08,13,00,40,18.00
2010,08,13,00,41,18.00
2010,08,13,00,42,18.00
2010,08,13,00,43,18.00
2010,08,13,00,44,18.10
2010,08,13,00,45,18.10
2010,08,13,00,46,18.10
2010,08,13,00,47,18.10
2010,08,13,00,48,18.10
2010,08,13,00,49,18.20
2010,08,13,00,50,18.20
2010,08,13,00,51,18.20
2010,08,13,00,52,18.20
2010,08,13,00,53,18.20
2010,08,13,00,54,18.20
2010,08,13,00,55,18.20
2010,08,13,00,56,18.20
2010,08,13,00,57,18.20
2010,08,13,00,58,18.20
2010,08,13,00,59,18.20
2010,08,13,01,00,18.20
2010,08,13,01,01,18.20
2010,08,13,01,02,18.10
2010,08,13,01,03,18.10
2010,08,13,01,04,18.10
2010,08,13,01,05,18.10
2010,08,13,01,06,18.10
2010,08,13,01,07,18.00
2010,08,13,01,08,18.00
2010,08,13,01,09,18.00
2010,08,13,01,10,18.00
2010,08,13,01,11,18.00
2010,08,13,01,12,17.90
2010,08,13,01,13,17.90
2010,08,13,01,14,17.90
2010,08,13,01,15,17.90
2010,08,13,01,16,17.90
2010,08,13,01,17,17.90
2010,08,13,01,18,17.90
2010,08,13,01,19,17.90
2010,08,13,01,20,17.90
2010,08,13,01,21,17.90
2010,08,13,01,22,17.90
2010,08,13,01,23,17.80
2010,08,13,01,24,17.80
2010,08,13,01,25,17.80
2010,08,13,01,26,17.80
2010,08,13,01,27,17.80
2010,08,13,01,28,17.80
2010,08,13,01,29,17.80
2010,08,13,01,30,17.70
2010,08,13,01,31,17.70
2010,08,13,01,32,17.70
2010,08,13,01,33,17.70
2010,08,13,01,34,17.70
2010,08,13,01,35,17.70
2010,08,13,01,36,17.70
2010,08,13,01,37,17.70
2010,08,13,01,38,17.70
2010,08,13,01,39,17.70
2010,08,13,01,40,17.70
2010,08,13,01,41,17.60
2010,08,13,01,42,17.60
2010,08,13,01,43,17.60
2010,08,13,01,44,17.60
2010,08,13,01,45,17.60
2010,08,13,01,46,17.50
2010,08,13,01,47,17.50
2010,08,13,01,48,17.50
2010,08,13,01,49,17.50
2010,08,13,01,50,17.50
2010,08,13,01,51,17.40
2010,08,13,01,52,17.40
2010,08,13,01,53,17.40
2010,08,13,01,54,17.40
2010,08,13,01,55,17.40
2010,08,13,01,56,17.40
2010,08,13,01,57,17.40
2010,08,13,01,58,17.40
2010,08,13,01,59,17.40
2010,08,13,02,00,17.40
2010,08,13,02,01,17.40
2010,08,13,02,02,17.50
2010,08,13,02,03,17.50
2010,08,13,02,04,17.50
2010,08,13,02,05,17.50
2010,08,13,02,06,17.50
2010,08,13,02,07,17.50
2010,08,13,02,08,17.50
2010,08,13,02,09,17.50
2010,08,13,02,10,17.50
2010,08,13,02,11,17.50
2010,08,13,02,12,17.50
2010,08,13,02,13,17.50
2010,08,13,02,14,17.50
2010,08,13,02,15,17.50
2010,08,13,02,16,17.50
2010,08,13,02,17,17.50
2010,08,13,02,18,17.50
2010,08,13,02,19,17.50
2010,08,13,02,20,17.50
2010,08,13,02,21,17.60
2010,08,13,02,22,17.60
2010,08,13,02,23,17.60
2010,08,13,02,24,17.60
2010,08,13,02,25,17.60
2010,08,13,02,26,17.60
2010,08,13,02,27,17.60
2010,08,13,02,28,17.60
2010,08,13,02,29,17.60
2010,08,13,02,30,17.60
2010,08,13,02,31,17.60
2010,08,13,02,32,17.60
2010,08,13,02,33,17.60
2010,08,13,02,34,17.60
2010,08,13,02,35,17.60
2010,08,13,02,36,17.60
2010,08,13,02,37,17.60
2010,08,13,02,38,17.70
2010,08,13,02,39,17.70
2010,08,13,02,40,17.70
2010,08,13,02,41,17.70
2010,08,13,02,42,17.70
2010,08,13,02,43,17.70
2010,08,13,02,44,17.70
2010,08,13,02,45,17.70
2010,08,13,02,46,17.70
2010,08,13,02,47,17.70
2010,08,13,02,48,17.70
2010,08,13,02,49,17.70
2010,08,13,02,50,17.70
2010,08,13,02,51,17.60
2010,08,13,02,52,17.60
2010,08,13,02,53,17.60
2010,08,13,02,54,17.60
2010,08,13,02,55,17.60
2010,08,13,02,56,17.60
2010,08,13,02,57,17.60
2010,08,13,02,58,17.70
2010,08,13,02,59,17.60
2010,08,13,03,00,17.60
2010,08,13,03,01,17.60
2010,08,13,03,02,17.60
2010,08,13,03,03,17.60
2010,08,13,03,04,17.60
2010,08,13,03,05,17.60
2010,08,13,03,06,17.60
2010,08,13,03,07,17.60
2010,08,13,03,08,17.70
2010,08,13,03,09,17.70
2010,08,13,03,10,17.70
2010,08,13,03,11,17.70
2010,08,13,03,12,17.70
2010,08,13,03,13,17.70
2010,08,13,03,14,17.70
2010,08,13,03,15,17.70
2010,08,13,03,16,17.70
2010,08,13,03,17,17.70
2010,08,13,03,18,17.70
2010,08,13,03,19,17.70
2010,08,13,03,20,17.70
2010,08,13,03,21,17.70
2010,08,13,03,22,17.60
2010,08,13,03,23,17.60
2010,08,13,03,24,17.60
2010,08,13,03,25,17.60
2010,08,13,03,26,17.60
2010,08,13,03,27,17.60
2010,08,13,03,28,17.50
2010,08,13,03,29,17.50
2010,08,13,03,30,17.50
2010,08,13,03,31,17.50
2010,08,13,03,32,17.50
2010,08,13,03,33,17.50
2010,08,13,03,34,17.40
2010,08,13,03,35,17.40
2010,08,13,03,36,17.40
2010,08,13,03,37,17.40
2010,08,13,03,38,17.40
2010,08,13,03,39,17.40
2010,08,13,03,40,17.40
2010,08,13,03,41,17.40
2010,08,13,03,42,17.40
2010,08,13,03,43,17.40
2010,08,13,03,44,17.40
2010,08,13,03,45,17.40
2010,08,13,03,46,17.30
2010,08,13,03,47,17.30
2010,08,13,03,48,17.30
2010,08,13,03,49,17.30
2010,08,13,03,50,17.30
2010,08,13,03,51,17.30
2010,08,13,03,52,17.30
2010,08,13,03,53,17.30
2010,08,13,03,54,17.30
2010,08,13,03,55,17.40
2010,08,13,03,56,17.40
2010,08,13,03,57,17.40
2010,08,13,03,58,17.40
2010,08,13,03,59,17.40
2010,08,13,04,00,17.50
2010,08,13,04,01,17.50
2010,08,13,04,02,17.50
2010,08,13,04,03,17.60
2010,08,13,04,04,17.60
2010,08,13,04,05,17.50
2010,08,13,04,06,17.50
2010,08,13,04,07,17.50
2010,08,13,04,08,17.60
2010,08,13,04,09,17.60
2010,08,13,04,10,17.60
2010,08,13,04,11,17.60
2010,08,13,04,12,17.60
2010,08,13,04,13,17.60
2010,08,13,04,14,17.60
2010,08,13,04,15,17.50
2010,08,13,04,16,17.50
2010,08,13,04,17,17.50
2010,08,13,04,18,17.40
2010,08,13,04,19,17.40
2010,08,13,04,20,17.40
2010,08,13,04,21,17.40
2010,08,13,04,22,17.40
2010,08,13,04,23,17.40
2010,08,13,04,24,17.30
2010,08,13,04,25,17.30
2010,08,13,04,26,17.30
2010,08,13,04,27,17.30
2010,08,13,04,28,17.30
2010,08,13,04,29,17.30
2010,08,13,04,30,17.30
2010,08,13,04,31,17.40
2010,08,13,04,32,17.40
2010,08,13,04,33,17.40
2010,08,13,04,34,17.40
2010,08,13,04,35,17.40
2010,08,13,04,36,17.40
2010,08,13,04,37,17.40
2010,08,13,04,38,17.40
2010,08,13,04,39,17.40
2010,08,13,04,40,17.40
2010,08,13,04,41,17.40
2010,08,13,04,42,17.40
2010,08,13,04,43,17.40
2010,08,13,04,44,17.40
2010,08,13,04,45,17.40
2010,08,13,04,46,17.40
2010,08,13,04,47,17.40
2010,08,13,04,48,17.40
2010,08,13,04,49,17.40
2010,08,13,04,50,17.40
2010,08,13,04,51,17.40
2010,08,13,04,52,17.40
2010,08,13,04,53,17.40
2010,08,13,04,54,17.40
2010,08,13,04,55,17.40
2010,08,13,04,56,17.40
2010,08,13,04,57,17.30
2010,08,13,04,58,17.30
2010,08,13,04,59,17.30
2010,08,13,05,00,17.30
2010,08,13,05,01,17.30
2010,08,13,05,02,17.30
2010,08,13,05,03,17.30
2010,08,13,05,04,17.30
2010,08,13,05,05,17.30
2010,08,13,05,06,17.30
2010,08,13,05,07,17.40
2010,08,13,05,08,17.40
2010,08,13,05,09,17.40
2010,08,13,05,10,17.40
2010,08,13,05,11,17.40
2010,08,13,05,12,17.30
2010,08,13,05,13,17.30
2010,08,13,05,14,17.30
2010,08,13,05,15,17.30
2010,08,13,05,16,17.30
2010,08,13,05,17,17.30
2010,08,13,05,18,17.30
2010,08,13,05,19,17.30
2010,08,13,05,20,17.30
2010,08,13,05,21,17.30
2010,08,13,05,22,17.30
2010,08,13,05,23,17.30
2010,08,13,05,24,17.30
2010,08,13,05,25,17.30
2010,08,13,05,26,17.30
2010,08,13,05,27,17.30
2010,08,13,05,28,17.20
2010,08,13,05,29,17.20
2010,08,13,05,30,17.20
2010,08,13,05,31,17.20
2010,08,13,05,32,17.20
2010,08,13,05,33,17.20
2010,08,13,05,34,17.20
2010,08,13,05,35,17.20
2010,08,13,05,36,17.20
2010,08,13,05,37,17.20
2010,08,13,05,38,17.20
2010,08,13,05,39,17.20
2010,08,13,05,40,17.20
2010,08,13,05,41,17.20
2010,08,13,05,42,17.20
2010,08,13,05,43,17.20
2010,08,13,05,44,17.20
2010,08,13,05,45,17.20
2010,08,13,05,46,17.20
2010,08,13,05,47,17.10
2010,08,13,05,48,17.10
2010,08,13,05,49,17.10
2010,08,13,05,50,17.10
2010,08,13,05,51,17.10
2010,08,13,05,52,17.10
2010,08,13,05,53,17.10
2010,08,13,05,54,17.10
2010,08,13,05,55,17.00
2010,08,13,05,56,17.00
2010,08,13,05,57,17.00
2010,08,13,05,58,17.00
2010,08,13,05,59,16.90
2010,08,13,06,00,16.90
2010,08,13,06,01,16.90
2010,08,13,06,02,16.90
2010,08,13,06,03,16.90
2010,08,13,06,04,16.80
2010,08,13,06,05,16.80
2010,08,13,06,06,16.80
2010,08,13,06,07,16.80
2010,08,13,06,08,16.80
2010,08,13,06,09,16.80
2010,08,13,06,10,16.80
2010,08,13,06,11,16.80
2010,08,13,06,12,16.80
2010,08,13,06,13,16.80
2010,08,13,06,14,16.70
2010,08,13,06,15,16.70
2010,08,13,06,16,16.70
2010,08,13,06,17,16.70
2010,08,13,06,18,16.70
2010,08,13,06,19,16.70
2010,08,13,06,20,16.70
2010,08,13,06,21,16.70
2010,08,13,06,22,16.70
2010,08,13,06,23,16.70
2010,08,13,06,24,16.80
2010,08,13,06,25,16.80
2010,08,13,06,26,16.80
2010,08,13,06,27,16.80
2010,08,13,06,28,16.80
2010,08,13,06,29,16.70
2010,08,13,06,30,16.80
2010,08,13,06,31,16.80
2010,08,13,06,32,16.80
2010,08,13,06,33,16.80
2010,08,13,06,34,16.80
2010,08,13,06,35,16.80
2010,08,13,06,36,16.80
2010,08,13,06,37,16.80
2010,08,13,06,38,16.80
2010,08,13,06,39,16.90
2010,08,13,06,40,16.90
2010,08,13,06,41,16.90
2010,08,13,06,42,16.90
2010,08,13,06,43,16.90
2010,08,13,06,44,16.90
2010,08,13,06,45,16.90
2010,08,13,06,46,16.90
2010,08,13,06,47,17.00
2010,08,13,06,48,17.00
2010,08,13,06,49,17.00
2010,08,13,06,50,17.10
2010,08,13,06,51,17.10
2010,08,13,06,52,17.10
2010,08,13,06,53,17.10
2010,08,13,06,54,17.10
2010,08,13,06,55,17.20
2010,08,13,06,56,17.20
2010,08,13,06,57,17.20
2010,08,13,06,58,17.20
2010,08,13,06,59,17.20
2010,08,13,07,00,17.20
2010,08,13,07,01,17.30
2010,08,13,07,02,17.30
2010,08,13,07,03,17.30
2010,08,13,07,04,17.30
2010,08,13,07,05,17.30
2010,08,13,07,06,17.30
2010,08,13,07,07,17.30
2010,08,13,07,08,17.30
2010,08,13,07,09,17.30
2010,08,13,07,10,17.30
2010,08,13,07,11,17.30
2010,08,13,07,12,17.30
2010,08,13,07,13,17.40
2010,08,13,07,14,17.40
2010,08,13,07,15,17.40
2010,08,13,07,16,17.40
2010,08,13,07,17,17.40
2010,08,13,07,18,17.40
2010,08,13,07,19,17.40
2010,08,13,07,20,17.40
2010,08,13,07,21,17.40
2010,08,13,07,22,17.50
2010,08,13,07,23,17.50
2010,08,13,07,24,17.60
2010,08,13,07,25,17.60
2010,08,13,07,26,17.60
2010,08,13,07,27,17.70
2010,08,13,07,28,17.70
2010,08,13,07,29,17.70
2010,08,13,07,30,17.80
2010,08,13,07,31,17.80
2010,08,13,07,32,17.80
2010,08,13,07,33,17.80
2010,08,13,07,34,17.80
2010,08,13,07,35,17.80
2010,08,13,07,36,17.90
2010,08,13,07,37,17.90
2010,08,13,07,38,17.90
2010,08,13,07,39,17.90
2010,08,13,07,40,17.90
2010,08,13,07,41,17.90
2010,08,13,07,42,17.90
2010,08,13,07,43,17.90
2010,08,13,07,44,18.00
2010,08,13,07,45,18.00
2010,08,13,07,46,18.00
2010,08,13,07,47,18.10
2010,08,13,07,48,18.10
2010,08,13,07,49,18.10
2010,08,13,07,50,18.20
2010,08,13,07,51,18.20
2010,08,13,07,52,18.20
2010,08,13,07,53,18.20
2010,08,13,07,54,18.30
2010,08,13,07,55,18.30
2010,08,13,07,56,18.30
2010,08,13,07,57,18.30
2010,08,13,07,58,18.40
2010,08,13,07,59,18.40
2010,08,13,08,00,18.40
2010,08,13,08,01,18.50
2010,08,13,08,02,18.50
2010,08,13,08,03,18.60
2010,08,13,08,04,18.60
2010,08,13,08,05,18.60
2010,08,13,08,06,18.60
2010,08,13,08,07,18.60
2010,08,13,08,08,18.70
2010,08,13,08,09,18.70
2010,08,13,08,10,18.70
2010,08,13,08,11,18.70
2010,08,13,08,12,18.70
2010,08,13,08,13,18.70
2010,08,13,08,14,18.70
2010,08,13,08,15,18.70
2010,08,13,08,16,18.70
2010,08,13,08,17,18.70
2010,08,13,08,18,18.70
2010,08,13,08,19,18.70
2010,08,13,08,20,18.80
2010,08,13,08,21,18.80
2010,08,13,08,22,18.80
2010,08,13,08,23,18.80
2010,08,13,08,24,18.80
2010,08,13,08,25,18.80
2010,08,13,08,26,18.90
2010,08,13,08,27,18.90
2010,08,13,08,28,18.90
2010,08,13,08,29,18.90
2010,08,13,08,30,18.90
2010,08,13,08,31,18.90
2010,08,13,08,32,19.00
2010,08,13,08,33,19.00
2010,08,13,08,34,19.10
2010,08,13,08,35,19.10
2010,08,13,08,36,19.10
2010,08,13,08,37,19.10
2010,08,13,08,38,19.10
2010,08,13,08,39,19.10
2010,08,13,08,40,19.10
2010,08,13,08,41,19.20
2010,08,13,08,42,19.20
2010,08,13,08,43,19.20
2010,08,13,08,44,19.20
2010,08,13,08,45,19.20
2010,08,13,08,46,19.30
2010,08,13,08,47,19.30
2010,08,13,08,48,19.30
2010,08,13,08,49,19.30
2010,08,13,08,50,19.40
2010,08,13,08,51,19.40
2010,08,13,08,52,19.40
2010,08,13,08,53,19.40
2010,08,13,08,54,19.50
2010,08,13,08,55,19.50
2010,08,13,08,56,19.60
2010,08,13,08,57,19.60
2010,08,13,08,58,19.60
2010,08,13,08,59,19.60
2010,08,13,09,00,19.60
2010,08,13,09,01,19.60
2010,08,13,09,02,19.70
2010,08,13,09,03,19.70
2010,08,13,09,04,19.70
2010,08,13,09,05,19.70
2010,08,13,09,06,19.70
2010,08,13,09,07,19.70
2010,08,13,09,08,19.70
2010,08,13,09,09,19.70
2010,08,13,09,10,19.70
2010,08,13,09,11,19.70
2010,08,13,09,12,19.70
2010,08,13,09,13,19.70
2010,08,13,09,14,19.70
2010,08,13,09,15,19.70
2010,08,13,09,16,19.70
2010,08,13,09,17,19.70
2010,08,13,09,18,19.60
2010,08,13,09,19,19.60
2010,08,13,09,20,19.60
2010,08,13,09,21,19.60
2010,08,13,09,22,19.60
2010,08,13,09,23,19.60
2010,08,13,09,24,19.60
2010,08,13,09,25,19.70
2010,08,13,09,26,19.70
2010,08,13,09,27,19.70
2010,08,13,09,28,19.70
2010,08,13,09,29,19.70
2010,08,13,09,30,19.80
2010,08,13,09,31,19.80
2010,08,13,09,32,19.80
2010,08,13,09,33,19.80
2010,08,13,09,34,19.90
2010,08,13,09,35,19.90
2010,08,13,09,36,20.00
2010,08,13,09,37,20.00
2010,08,13,09,38,20.00
2010,08,13,09,39,20.00
2010,08,13,09,40,20.00
2010,08,13,09,41,20.00
2010,08,13,09,42,20.00
2010,08,13,09,43,20.00
2010,08,13,09,44,19.90
2010,08,13,09,45,20.00
2010,08,13,09,46,20.00
2010,08,13,09,47,20.00
2010,08,13,09,48,20.00
2010,08,13,09,49,19.90
2010,08,13,09,50,19.90
2010,08,13,09,51,19.80
2010,08,13,09,52,19.80
2010,08,13,09,53,19.80
2010,08,13,09,54,19.80
2010,08,13,09,55,19.80
2010,08,13,09,56,19.80
2010,08,13,09,57,19.90
2010,08,13,09,58,19.90
2010,08,13,09,59,19.90
2010,08,13,10,00,19.90
2010,08,13,10,01,19.90
2010,08,13,10,02,19.90
2010,08,13,10,03,19.90
2010,08,13,10,04,19.90
2010,08,13,10,05,19.80
2010,08,13,10,06,19.80
2010,08,13,10,07,19.80
2010,08,13,10,08,19.90
2010,08,13,10,09,19.90
2010,08,13,10,10,19.90
2010,08,13,10,11,19.90
2010,08,13,10,12,19.90
2010,08,13,10,13,19.80
2010,08,13,10,14,19.90
2010,08,13,10,15,19.90
2010,08,13,10,16,20.00
2010,08,13,10,17,20.00
2010,08,13,10,18,20.10
2010,08,13,10,19,20.10
2010,08,13,10,20,20.20
2010,08,13,10,21,20.30
2010,08,13,10,22,20.30
2010,08,13,10,23,20.40
2010,08,13,10,24,20.50
2010,08,13,10,25,20.50
2010,08,13,10,26,20.60
2010,08,13,10,27,20.60
2010,08,13,10,28,20.60
2010,08,13,10,29,20.60
2010,08,13,10,30,20.70
2010,08,13,10,31,20.60
2010,08,13,10,32,20.60
2010,08,13,10,33,20.60
2010,08,13,10,34,20.60
2010,08,13,10,35,20.60
2010,08,13,10,36,20.50
2010,08,13,10,37,20.50
2010,08,13,10,38,20.50
2010,08,13,10,39,20.40
2010,08,13,10,40,20.50
2010,08,13,10,41,20.50
2010,08,13,10,42,20.60
2010,08,13,10,43,20.60
2010,08,13,10,44,20.70
2010,08,13,10,45,20.80
2010,08,13,10,46,20.80
2010,08,13,10,47,20.90
2010,08,13,10,48,20.90
2010,08,13,10,49,20.90
2010,08,13,10,50,20.90
2010,08,13,10,51,20.90
2010,08,13,10,52,20.80
2010,08,13,10,53,20.90
2010,08,13,10,54,21.00
2010,08,13,10,55,21.10
2010,08,13,10,56,21.10
2010,08,13,10,57,21.20
2010,08,13,10,58,21.30
2010,08,13,10,59,21.40
2010,08,13,11,00,21.50
2010,08,13,11,01,21.50
2010,08,13,11,02,21.60
2010,08,13,11,03,21.60
2010,08,13,11,04,21.60
2010,08,13,11,05,21.60
2010,08,13,11,06,21.60
2010,08,13,11,07,21.70
2010,08,13,11,08,21.70
2010,08,13,11,09,21.80
2010,08,13,11,10,21.80
2010,08,13,11,11,21.80
2010,08,13,11,12,21.80
2010,08,13,11,13,21.70
2010,08,13,11,14,21.70
2010,08,13,11,15,21.70
2010,08,13,11,16,21.60
2010,08,13,11,17,21.50
2010,08,13,11,18,21.40
2010,08,13,11,19,21.40
2010,08,13,11,20,21.30
2010,08,13,11,21,21.30
2010,08,13,11,22,21.40
2010,08,13,11,23,21.40
2010,08,13,11,24,21.40
2010,08,13,11,25,21.50
2010,08,13,11,26,21.50
2010,08,13,11,27,21.60
2010,08,13,11,28,21.70
2010,08,13,11,29,21.80
2010,08,13,11,30,21.80
2010,08,13,11,31,21.90
2010,08,13,11,32,22.00
2010,08,13,11,33,22.10
2010,08,13,11,34,22.20
2010,08,13,11,35,22.30
2010,08,13,11,36,22.40
2010,08,13,11,37,22.40
2010,08,13,11,38,22.30
2010,08,13,11,39,22.30
2010,08,13,11,40,22.20
2010,08,13,11,41,22.20
2010,08,13,11,42,22.20
2010,08,13,11,43,22.20
2010,08,13,11,44,22.20
2010,08,13,11,45,22.20
2010,08,13,11,46,22.30
2010,08,13,11,47,22.30
2010,08,13,11,48,22.40
2010,08,13,11,49,22.40
2010,08,13,11,50,22.40
2010,08,13,11,51,22.40
2010,08,13,11,52,22.30
2010,08,13,11,53,22.30
2010,08,13,11,54,22.30
2010,08,13,11,55,22.30
2010,08,13,11,56,22.30
2010,08,13,11,57,22.30
2010,08,13,11,58,22.50
2010,08,13,11,59,22.60
2010,08,13,12,00,22.60
2010,08,13,12,01,22.60
2010,08,13,12,02,22.70
2010,08,13,12,03,22.70
2010,08,13,12,04,22.80
2010,08,13,12,05,22.70
2010,08,13,12,06,22.70
2010,08,13,12,07,22.70
2010,08,13,12,08,22.70
2010,08,13,12,09,22.70
2010,08,13,12,10,22.70
2010,08,13,12,11,22.70
2010,08,13,12,12,22.70
2010,08,13,12,13,22.70
2010,08,13,12,14,22.70
2010,08,13,12,15,22.70
2010,08,13,12,16,22.70
2010,08,13,12,17,22.80
2010,08,13,12,18,22.80
2010,08,13,12,19,22.90
2010,08,13,12,20,22.80
2010,08,13,12,21,22.90
2010,08,13,12,22,22.90
2010,08,13,12,23,22.90
2010,08,13,12,24,22.90
2010,08,13,12,25,22.90
2010,08,13,12,26,22.90
2010,08,13,12,27,22.90
2010,08,13,12,28,23.00
2010,08,13,12,29,23.00
2010,08,13,12,30,23.00
2010,08,13,12,31,23.10
2010,08,13,12,32,23.10
2010,08,13,12,33,23.10
2010,08,13,12,34,23.10
2010,08,13,12,35,23.10
2010,08,13,12,36,23.10
2010,08,13,12,37,23.20
2010,08,13,12,38,23.30
2010,08,13,12,39,23.40
2010,08,13,12,40,23.40
2010,08,13,12,41,23.40
2010,08,13,12,42,23.20
2010,08,13,12,43,23.10
2010,08,13,12,44,23.10
2010,08,13,12,45,23.10
2010,08,13,12,46,23.10
2010,08,13,12,47,23.10
2010,08,13,12,48,23.10
2010,08,13,12,49,23.10
2010,08,13,12,50,23.10
2010,08,13,12,51,23.20
2010,08,13,12,52,23.10
2010,08,13,12,53,23.10
2010,08,13,12,54,23.10
2010,08,13,12,55,23.20
2010,08,13,12,56,23.20
2010,08,13,12,57,23.30
2010,08,13,12,58,23.30
2010,08,13,12,59,23.30
2010,08,13,13,00,23.30
2010,08,13,13,01,23.30
2010,08,13,13,02,23.30
2010,08,13,13,03,23.30
2010,08,13,13,04,23.30
2010,08,13,13,05,23.40
2010,08,13,13,06,23.40
2010,08,13,13,07,23.40
2010,08,13,13,08,23.50
2010,08,13,13,09,23.50
2010,08,13,13,10,23.60
2010,08,13,13,11,23.70
2010,08,13,13,12,23.80
2010,08,13,13,13,23.80
2010,08,13,13,14,23.90
2010,08,13,13,15,24.00
2010,08,13,13,16,24.00
2010,08,13,13,17,24.00
2010,08,13,13,18,24.10
2010,08,13,13,19,24.10
2010,08,13,13,20,24.10
2010,08,13,13,21,24.00
2010,08,13,13,22,23.90
2010,08,13,13,23,23.80
2010,08,13,13,24,23.80
2010,08,13,13,25,23.90
2010,08,13,13,26,24.00
2010,08,13,13,27,24.00
2010,08,13,13,28,24.10
2010,08,13,13,29,24.10
2010,08,13,13,30,24.10
2010,08,13,13,31,24.00
2010,08,13,13,32,24.00
2010,08,13,13,33,24.10
2010,08,13,13,34,24.10
2010,08,13,13,35,24.10
2010,08,13,13,36,24.10
2010,08,13,13,37,24.20
2010,08,13,13,38,24.20
2010,08,13,13,39,24.20
2010,08,13,13,40,24.20
2010,08,13,13,41,24.30
2010,08,13,13,42,24.30
2010,08,13,13,43,24.30
2010,08,13,13,44,24.20
2010,08,13,13,45,24.20
2010,08,13,13,46,24.20
2010,08,13,13,47,24.20
2010,08,13,13,48,24.30
2010,08,13,13,49,24.30
2010,08,13,13,50,24.30
2010,08,13,13,51,24.30
2010,08,13,13,52,24.30
2010,08,13,13,53,24.40
2010,08,13,13,54,24.40
2010,08,13,13,55,24.50
2010,08,13,13,56,24.60
2010,08,13,13,57,24.60
2010,08,13,13,58,24.70
2010,08,13,13,59,24.70
2010,08,13,14,00,24.70
2010,08,13,14,01,24.70
2010,08,13,14,02,24.70
2010,08,13,14,03,24.70
2010,08,13,14,04,24.70
2010,08,13,14,05,24.70
2010,08,13,14,06,24.70
2010,08,13,14,07,24.80
2010,08,13,14,08,24.70
2010,08,13,14,09,24.70
2010,08,13,14,10,24.70
2010,08,13,14,11,24.80
2010,08,13,14,12,24.70
2010,08,13,14,13,24.70
2010,08,13,14,14,24.70
2010,08,13,14,15,24.60
2010,08,13,14,16,24.60
2010,08,13,14,17,24.70
2010,08,13,14,18,24.70
2010,08,13,14,19,24.70
2010,08,13,14,20,24.80
2010,08,13,14,21,24.80
2010,08,13,14,22,24.80
2010,08,13,14,23,24.80
2010,08,13,14,24,24.90
2010,08,13,14,25,24.90
2010,08,13,14,26,24.90
2010,08,13,14,27,24.90
2010,08,13,14,28,24.90
2010,08,13,14,29,24.80
2010,08,13,14,30,24.70
2010,08,13,14,31,24.60
2010,08,13,14,32,24.60
2010,08,13,14,33,24.60
2010,08,13,14,34,24.60
2010,08,13,14,35,24.80
2010,08,13,14,36,24.90
2010,08,13,14,37,25.00
2010,08,13,14,38,25.20
2010,08,13,14,39,25.30
2010,08,13,14,40,25.50
2010,08,13,14,41,25.60
2010,08,13,14,42,25.70
2010,08,13,14,43,25.70
2010,08,13,14,44,25.80
2010,08,13,14,45,25.80
2010,08,13,14,46,25.80
2010,08,13,14,47,25.80
2010,08,13,14,48,25.90
2010,08,13,14,49,25.90
2010,08,13,14,50,25.90
2010,08,13,14,51,25.90
2010,08,13,14,52,25.90
2010,08,13,14,53,25.90
2010,08,13,14,54,25.90
2010,08,13,14,55,25.90
2010,08,13,14,56,25.90
2010,08,13,14,57,25.90
2010,08,13,14,58,25.90
2010,08,13,14,59,25.90
2010,08,13,15,00,25.90
2010,08,13,15,01,25.90
2010,08,13,15,02,25.90
2010,08,13,15,03,25.90
2010,08,13,15,04,25.90
2010,08,13,15,05,25.90
2010,08,13,15,06,26.00
2010,08,13,15,07,26.00
2010,08,13,15,08,26.10
2010,08,13,15,09,26.00
2010,08,13,15,10,25.90
2010,08,13,15,11,25.90
2010,08,13,15,12,25.90
2010,08,13,15,13,25.90
2010,08,13,15,14,25.90
2010,08,13,15,15,25.90
2010,08,13,15,16,25.90
2010,08,13,15,17,25.90
2010,08,13,15,18,25.90
2010,08,13,15,19,25.80
2010,08,13,15,20,25.70
2010,08,13,15,21,25.60
2010,08,13,15,22,25.50
2010,08,13,15,23,25.50
2010,08,13,15,24,25.60
2010,08,13,15,25,25.60
2010,08,13,15,26,25.60
2010,08,13,15,27,25.70
2010,08,13,15,28,25.80
2010,08,13,15,29,25.80
2010,08,13,15,30,25.90
2010,08,13,15,31,26.00
2010,08,13,15,32,26.10
2010,08,13,15,33,26.20
2010,08,13,15,34,26.30
2010,08,13,15,35,26.30
2010,08,13,15,36,26.40
2010,08,13,15,37,26.40
2010,08,13,15,38,26.40
2010,08,13,15,39,26.50
2010,08,13,15,40,26.50
2010,08,13,15,41,26.50
2010,08,13,15,42,26.40
2010,08,13,15,43,26.40
2010,08,13,15,44,26.50
2010,08,13,15,45,26.50
2010,08,13,15,46,26.60
2010,08,13,15,47,26.60
2010,08,13,15,48,26.70
2010,08,13,15,49,26.70
2010,08,13,15,50,26.70
2010,08,13,15,51,26.70
2010,08,13,15,52,26.70
2010,08,13,15,53,26.70
2010,08,13,15,54,26.70
2010,08,13,15,55,26.70
2010,08,13,15,56,26.70
2010,08,13,15,57,26.70
2010,08,13,15,58,26.70
2010,08,13,15,59,26.70
2010,08,13,16,00,26.70
2010,08,13,16,01,26.80
2010,08,13,16,02,26.80
2010,08,13,16,03,26.80
2010,08,13,16,04,26.70
2010,08,13,16,05,26.70
2010,08,13,16,06,26.70
2010,08,13,16,07,26.70
2010,08,13,16,08,26.70
2010,08,13,16,09,26.70
2010,08,13,16,10,26.70
2010,08,13,16,11,26.70
2010,08,13,16,12,26.60
2010,08,13,16,13,26.60
2010,08,13,16,14,26.60
2010,08,13,16,15,26.60
2010,08,13,16,16,26.60
2010,08,13,16,17,26.50
2010,08,13,16,18,26.50
2010,08,13,16,19,26.50
2010,08,13,16,20,26.50
2010,08,13,16,21,26.50
2010,08,13,16,22,26.50
2010,08,13,16,23,26.50
2010,08,13,16,24,26.50
2010,08,13,16,25,26.60
2010,08,13,16,26,26.60
2010,08,13,16,27,26.60
2010,08,13,16,28,26.60
2010,08,13,16,29,26.70
2010,08,13,16,30,26.70
2010,08,13,16,31,26.70
2010,08,13,16,32,26.70
2010,08,13,16,33,26.80
2010,08,13,16,34,26.80
2010,08,13,16,35,26.90
2010,08,13,16,36,27.00
2010,08,13,16,37,27.10
2010,08,13,16,38,27.20
2010,08,13,16,39,27.20
2010,08,13,16,40,27.20
2010,08,13,16,41,27.30
2010,08,13,16,42,27.20
2010,08,13,16,43,27.30
2010,08,13,16,44,27.30
2010,08,13,16,45,27.30
2010,08,13,16,46,27.40
2010,08,13,16,47,27.40
2010,08,13,16,48,27.40
2010,08,13,16,49,27.40
2010,08,13,16,50,27.50
2010,08,13,16,51,27.60
2010,08,13,16,52,27.60
2010,08,13,16,53,27.70
2010,08,13,16,54,27.80
2010,08,13,16,55,27.90
2010,08,13,16,56,28.00
2010,08,13,16,57,28.10
2010,08,13,16,58,28.20
2010,08,13,16,59,28.20
2010,08,13,17,00,28.30
2010,08,13,17,01,28.30
2010,08,13,17,02,28.20
2010,08,13,17,03,28.20
2010,08,13,17,04,28.10
2010,08,13,17,05,28.10
2010,08,13,17,06,28.00
2010,08,13,17,07,27.90
2010,08,13,17,08,27.90
2010,08,13,17,09,28.00
2010,08,13,17,10,28.00
2010,08,13,17,11,28.10
2010,08,13,17,12,28.10
2010,08,13,17,13,28.10
2010,08,13,17,14,28.10
2010,08,13,17,15,28.10
2010,08,13,17,16,28.10
2010,08,13,17,17,28.00
2010,08,13,17,18,28.00
2010,08,13,17,19,27.90